TimeCDT,TemperatureF,Dew PointF,Humidity,Sea Level PressureIn,VisibilityMPH,Wind Direction,Wind SpeedMPH,Gust SpeedMPH,PrecipitationIn,Events,Conditions,WindDirDegrees,DateUTC
12:15 AM,71.1,68.9,93,30.12,1.8,Calm,Calm,-,N/A,,Mist,0,2013-08-22 05:15:00
12:35 AM,69.8,68.0,94,30.11,0.2,Calm,Calm,-,N/A,Fog,Fog,0,2013-08-22 05:35:00
12:55 AM,69.6,67.8,94,30.11,2.0,Calm,Calm,-,N/A,,Clear,0,2013-08-22 05:55:00
1:15 AM,68.5,66.6,93,30.11,4.0,Calm,Calm,-,N/A,,Clear,0,2013-08-22 06:15:00
1:35 AM,68.9,67.1,94,30.10,7.0,Calm,Calm,-,N/A,,Clear,0,2013-08-22 06:35:00
1:55 AM,68.7,66.9,94,30.10,0.2,Calm,Calm,-,N/A,Fog,Fog,0,2013-08-22 06:55:00
2:15 AM,67.8,66.0,94,30.09,10.0,Calm,Calm,-,N/A,,Clear,0,2013-08-22 07:15:00
2:35 AM,68.5,66.7,94,30.08,7.0,Calm,Calm,-,N/A,,Clear,0,2013-08-22 07:35:00
2:55 AM,67.1,65.3,94,30.08,5.0,Calm,Calm,-,N/A,,Clear,0,2013-08-22 07:55:00
3:15 AM,67.8,66.0,94,30.09,7.0,Calm,Calm,-,N/A,,Clear,0,2013-08-22 08:15:00
3:35 AM,67.6,66.0,95,30.09,1.0,Calm,Calm,-,N/A,,Mist,0,2013-08-22 08:35:00
3:55 AM,67.8,66.2,95,30.10,0.8,Calm,Calm,-,N/A,,Mist,0,2013-08-22 08:55:00
4:15 AM,67.5,65.8,95,30.10,7.0,Calm,Calm,-,N/A,,Clear,0,2013-08-22 09:15:00
4:35 AM,66.9,65.3,95,30.10,5.0,Calm,Calm,-,N/A,,Clear,0,2013-08-22 09:35:00
4:55 AM,68.2,66.6,95,30.11,3.0,Calm,Calm,-,N/A,,Clear,0,2013-08-22 09:55:00
5:15 AM,67.6,66.2,95,30.11,4.0,Calm,Calm,-,N/A,,Clear,0,2013-08-22 10:15:00
5:35 AM,67.5,66.0,95,30.12,0.2,Calm,Calm,-,N/A,Fog,Fog,0,2013-08-22 10:35:00
5:55 AM,68.2,66.7,95,30.12,1.2,SSE,3.5,-,N/A,,Mist,160,2013-08-22 10:55:00
6:15 AM,66.6,65.3,96,30.12,1.5,Calm,Calm,-,N/A,,Mist,0,2013-08-22 11:15:00
6:35 AM,66.4,65.1,96,30.12,0.5,Calm,Calm,-,N/A,Fog,Fog,0,2013-08-22 11:35:00
6:55 AM,67.3,65.8,95,30.13,0.2,Calm,Calm,-,N/A,Fog,Fog,0,2013-08-22 11:55:00
7:15 AM,69.1,67.6,95,30.13,5.0,Calm,Calm,-,N/A,,Clear,0,2013-08-22 12:15:00
7:35 AM,70.5,69.3,96,30.13,4.0,Calm,Calm,-,N/A,,Clear,0,2013-08-22 12:35:00
7:55 AM,73.9,72.5,95,30.13,5.0,Calm,Calm,-,N/A,,Clear,0,2013-08-22 12:55:00
8:15 AM,76.5,74.5,94,30.13,7.0,South,3.5,-,N/A,,Clear,190,2013-08-22 13:15:00
8:35 AM,78.1,75.4,91,30.13,10.0,Calm,Calm,-,N/A,,Clear,0,2013-08-22 13:35:00
8:55 AM,79.0,75.6,89,30.13,10.0,Calm,Calm,-,N/A,,Clear,0,2013-08-22 13:55:00
9:15 AM,80.4,75.9,86,30.13,10.0,Calm,Calm,-,N/A,,Clear,0,2013-08-22 14:15:00
9:35 AM,81.7,76.1,83,30.13,10.0,Calm,Calm,-,N/A,,Clear,0,2013-08-22 14:35:00
9:55 AM,82.4,75.4,79,30.13,10.0,WSW,3.5,-,N/A,,Clear,250,2013-08-22 14:55:00
10:15 AM,83.3,74.8,76,30.13,10.0,SW,3.5,-,N/A,,Clear,230,2013-08-22 15:15:00
10:35 AM,84.7,75.0,72,30.13,10.0,SSW,3.5,-,N/A,,Clear,210,2013-08-22 15:35:00
10:55 AM,85.5,74.7,70,30.13,10.0,West,3.5,-,N/A,,Clear,260,2013-08-22 15:55:00
11:15 AM,86.9,75.9,70,30.13,10.0,Calm,Calm,-,N/A,,Clear,0,2013-08-22 16:15:00
11:35 AM,87.3,75.2,67,30.12,10.0,Calm,Calm,-,N/A,,Clear,0,2013-08-22 16:35:00
11:55 AM,87.8,73.8,63,30.11,10.0,Calm,Calm,-,N/A,,Clear,0,2013-08-22 16:55:00
12:15 PM,88.7,72.7,59,30.11,10.0,WSW,3.5,-,N/A,,Clear,250,2013-08-22 17:15:00
12:35 PM,89.6,72.1,56,30.10,10.0,Calm,Calm,-,N/A,,Clear,0,2013-08-22 17:35:00
12:55 PM,90.0,73.0,57,30.10,10.0,SW,4.6,-,N/A,,Clear,230,2013-08-22 17:55:00
1:15 PM,90.7,73.6,57,30.10,10.0,Calm,Calm,-,N/A,,Clear,0,2013-08-22 18:15:00
1:35 PM,90.9,72.1,54,30.09,10.0,NW,4.6,-,N/A,,Clear,320,2013-08-22 18:35:00
1:55 PM,91.0,72.0,53,30.08,10.0,WNW,3.5,-,N/A,,Clear,300,2013-08-22 18:55:00
2:15 PM,91.9,72.7,53,30.08,10.0,Calm,Calm,-,N/A,,Clear,0,2013-08-22 19:15:00
2:35 PM,91.6,71.2,51,30.08,10.0,WNW,3.5,-,N/A,,Clear,300,2013-08-22 19:35:00
2:55 PM,91.9,68.0,45,30.07,10.0,Calm,Calm,-,N/A,,Clear,0,2013-08-22 19:55:00
3:15 PM,92.1,67.5,44,30.06,10.0,Calm,Calm,-,N/A,,Clear,0,2013-08-22 20:15:00
3:35 PM,92.3,66.0,42,30.06,10.0,Calm,Calm,-,N/A,,Clear,0,2013-08-22 20:35:00
3:55 PM,91.8,67.6,45,30.05,10.0,Calm,Calm,-,N/A,,Clear,0,2013-08-22 20:55:00
4:15 PM,92.7,68.5,45,30.05,10.0,Calm,Calm,-,N/A,,Clear,0,2013-08-22 21:15:00
4:35 PM,91.9,69.6,48,30.04,10.0,Calm,Calm,-,N/A,,Clear,0,2013-08-22 21:35:00
4:55 PM,91.8,70.2,49,30.04,10.0,Calm,Calm,-,N/A,,Clear,0,2013-08-22 21:55:00
5:15 PM,91.2,71.1,51,30.03,10.0,Calm,Calm,-,N/A,,Clear,0,2013-08-22 22:15:00
5:35 PM,91.8,69.4,48,30.02,10.0,Calm,Calm,-,N/A,,Clear,0,2013-08-22 22:35:00
5:55 PM,89.6,72.5,57,30.02,10.0,Calm,Calm,-,N/A,,Clear,0,2013-08-22 22:55:00
6:15 PM,88.5,73.6,61,30.02,10.0,Calm,Calm,-,N/A,,Clear,0,2013-08-22 23:15:00
6:35 PM,87.3,74.5,66,30.02,10.0,Calm,Calm,-,N/A,,Clear,0,2013-08-22 23:35:00
6:55 PM,86.4,74.3,67,30.02,10.0,Calm,Calm,-,N/A,,Clear,0,2013-08-22 23:55:00
7:15 PM,83.1,74.5,75,30.03,10.0,Calm,Calm,-,N/A,,Clear,0,2013-08-23 00:15:00
7:35 PM,80.8,72.9,77,30.03,10.0,Calm,Calm,-,N/A,,Clear,0,2013-08-23 00:35:00
7:55 PM,79.3,72.9,80,30.03,10.0,Calm,Calm,-,N/A,,Clear,0,2013-08-23 00:55:00
8:15 PM,78.8,72.7,81,30.03,10.0,Calm,Calm,-,N/A,,Clear,0,2013-08-23 01:15:00
8:35 PM,77.0,71.6,83,30.03,7.0,Calm,Calm,-,N/A,,Clear,0,2013-08-23 01:35:00
8:55 PM,77.5,72.9,85,30.04,7.0,Calm,Calm,-,N/A,,Clear,0,2013-08-23 01:55:00
9:15 PM,76.8,72.5,86,30.05,7.0,Calm,Calm,-,N/A,,Clear,0,2013-08-23 02:15:00
9:35 PM,75.7,71.6,87,30.05,7.0,Calm,Calm,-,N/A,,Clear,0,2013-08-23 02:35:00
9:55 PM,75.7,72.1,89,30.05,7.0,Calm,Calm,-,N/A,,Clear,0,2013-08-23 02:55:00
10:15 PM,75.2,71.8,89,30.05,1.8,Calm,Calm,-,N/A,,Mist,0,2013-08-23 03:15:00
10:35 PM,75.4,72.1,90,30.05,5.0,Calm,Calm,-,N/A,,Clear,0,2013-08-23 03:35:00
10:55 PM,74.7,71.4,90,30.05,1.2,Calm,Calm,-,N/A,,Mist,0,2013-08-23 03:55:00
11:15 PM,73.6,70.9,91,30.06,4.0,Calm,Calm,-,N/A,,Clear,0,2013-08-23 04:15:00
11:35 PM,73.6,71.1,92,30.06,0.5,Calm,Calm,-,N/A,Fog,Fog,0,2013-08-23 04:35:00
11:55 PM,73.6,71.1,92,30.06,3.0,Calm,Calm,-,N/A,,Mist,0,2013-08-23 04:55:00